Weather History for KSBO - March, 2013

Change the Weather History Date:

Tuesday, March 12, 2013

  Actual Average Record
Temperature  
Mean Temperature 57 °F -  
Max Temperature 68 °F 73 °F 78 °F (2015)
Min Temperature 46 °F 46 °F 46 °F (2013)
Degree Days  
Heating Degree Days 8    
Growing Degree Days 7 (Base 50)    
Moisture  
Dew Point 47 °F    
Average Humidity 70    
Maximum Humidity 100    
Minimum Humidity 30    
Precipitation  
Precipitation 0.00 in - - ()
Sea Level Pressure  
Sea Level Pressure 29.91 in    
Wind  
Wind Speed 8 mph (West)    
Max Wind Speed 15 mph    
Max Gust Speed 21 mph    
Visibility 9 miles    
Events Rain    
Averages and records for this station are not official NWS values.
T = Trace of Precipitation, MM = Missing Value Source: NWS Daily Summary

Daily Weather History Graph

Daily Weather History Graph

Search for Another Location

Airport or City:

Trip Planner

Search our weather history database for the weather conditions in past years. The results will help you decide how hot, cold, wet, or windy it might be!

Date:

Astronomy

Mar. 12, 2013 Rise Set
Actual Time 7:43 AM EDT 7:35 PM EDT
Civil Twilight 7:18 AM EDT 7:59 PM EDT
Nautical Twilight 6:50 AM EDT 8:28 PM EDT
Astronomical Twilight 6:21 AM EDT 8:57 PM EDT
Moon 7:54 AM EDT (3/12) 8:42 PM EDT (3/12)
Length of Visible Light 12h 41m
Length of Day
11h 52m
New Moon, 1% of the Moon is Illuminated
Mar 12
New Moon
Mar 19
First Quarter
Mar 27
Full
Apr 3
Last Quarter
Apr 10
New

Hourly Weather History & Observations

Time (EDT) Temp. Windchill Dew Point Humidity Pressure Visibility Wind Dir Wind Speed Gust Speed Precip Events Conditions
12:15 AM 64.4 °F - 57.2 °F 77% 29.85 in 10.0 mi South 10.4 mph - N/A   Overcast
12:35 AM 64.4 °F - 57.2 °F 77% 29.86 in 10.0 mi South 8.1 mph - N/A   Overcast
12:55 AM 62.6 °F - 57.2 °F 82% 29.86 in 10.0 mi South 6.9 mph - N/A Rain Rain
1:15 AM 60.8 °F - 59.0 °F 94% 29.86 in 10.0 mi South 4.6 mph - N/A Rain Light Rain
1:35 AM 60.8 °F - 60.8 °F 100% 29.86 in 7.0 mi South 3.5 mph - N/A Rain Rain
1:55 AM 60.8 °F - 60.8 °F 100% 29.85 in 7.0 mi South 4.6 mph - N/A Rain Light Rain
2:15 AM 59.0 °F - 59.0 °F 100% 29.84 in 10.0 mi SSE 6.9 mph - N/A Rain Light Rain
2:35 AM 59.0 °F - 59.0 °F 100% 29.85 in 7.0 mi South 5.8 mph - N/A Rain Light Rain
2:55 AM 59.0 °F - 59.0 °F 100% 29.85 in 7.0 mi South 5.8 mph - N/A Rain Rain
3:15 AM 59.0 °F - 59.0 °F 100% 29.83 in 10.0 mi South 8.1 mph - N/A Rain Light Rain
3:55 AM 59.0 °F - 59.0 °F 100% 29.82 in 10.0 mi South 4.6 mph - N/A Rain Light Rain
4:15 AM 59.0 °F - 59.0 °F 100% 29.83 in 7.0 mi Calm Calm - N/A Rain Rain
4:55 AM 59.0 °F - 59.0 °F 100% 29.81 in 5.0 mi South 6.9 mph - N/A Rain Rain
5:15 AM 59.0 °F - 59.0 °F 100% 29.81 in 10.0 mi SSE 9.2 mph - N/A   Drizzle
5:35 AM 60.8 °F - 60.8 °F 100% 29.81 in 10.0 mi SSW 6.9 mph - N/A Rain Light Rain
5:55 AM 59.0 °F - 59.0 °F 100% 29.81 in 5.0 mi South 5.8 mph - N/A Rain Heavy Rain
6:15 AM 59.0 °F - 59.0 °F 100% 29.82 in 3.0 mi SW 3.5 mph - N/A   Drizzle
6:55 AM 57.2 °F - 57.2 °F 100% 29.84 in 5.0 mi WNW 13.8 mph 19.6 mph N/A   Drizzle
7:15 AM 55.4 °F - 55.4 °F 100% 29.85 in 3.0 mi NW 6.9 mph - N/A   Drizzle
7:35 AM 55.4 °F - 55.4 °F 100% 29.86 in 7.0 mi NW 6.9 mph - N/A   Heavy Drizzle
7:55 AM 53.6 °F - 53.6 °F 100% 29.87 in 5.0 mi West 10.4 mph - N/A   Drizzle
8:15 AM 51.8 °F - 51.8 °F 100% 29.89 in 10.0 mi WNW 12.7 mph 17.3 mph N/A   Overcast
8:35 AM 51.8 °F - 51.8 °F 100% 29.90 in 10.0 mi WNW 8.1 mph - N/A   Overcast
8:55 AM 50.0 °F - 50.0 °F 100% 29.91 in 10.0 mi NW 13.8 mph 17.3 mph N/A   Overcast
9:15 AM 50.0 °F - 50.0 °F 100% 29.92 in 10.0 mi WNW 10.4 mph - N/A   Overcast
9:35 AM 48.2 °F - 48.2 °F 100% 29.93 in 10.0 mi WNW 11.5 mph - N/A   Overcast
9:55 AM 46.4 °F 40.1 °F 46.4 °F 100% 29.94 in 10.0 mi NW 15.0 mph 19.6 mph N/A   Overcast
10:15 AM 48.2 °F - 46.4 °F 93% 29.94 in 10.0 mi WNW 10.4 mph 19.6 mph N/A   Mostly Cloudy
10:35 AM 50.0 °F - 46.4 °F 87% 29.94 in 10.0 mi WNW 11.5 mph 16.1 mph N/A   Scattered Clouds
10:55 AM 50.0 °F - 44.6 °F 82% 29.94 in 10.0 mi West 10.4 mph - N/A   Clear
11:15 AM 51.8 °F - 44.6 °F 76% 29.94 in 10.0 mi WNW 5.8 mph - N/A   Clear
11:35 AM 53.6 °F - 46.4 °F 77% 29.94 in 10.0 mi West 6.9 mph - N/A   Clear
11:55 AM 53.6 °F - 44.6 °F 72% 29.94 in 10.0 mi WNW 6.9 mph - N/A   Clear
12:15 PM 55.4 °F - 44.6 °F 67% 29.94 in 10.0 mi WNW 8.1 mph - N/A   Clear
12:35 PM 57.2 °F - 46.4 °F 67% 29.94 in 10.0 mi WSW 6.9 mph - N/A   Clear
12:55 PM 59.0 °F - 44.6 °F 59% 29.93 in 10.0 mi NW 8.1 mph - N/A   Clear
1:15 PM 59.0 °F - 44.6 °F 59% 29.93 in 10.0 mi West 12.7 mph - N/A   Clear
1:35 PM 60.8 °F - 44.6 °F 55% 29.92 in 10.0 mi West 9.2 mph 16.1 mph N/A   Clear
1:55 PM 60.8 °F - 46.4 °F 59% 29.92 in 10.0 mi WNW 9.2 mph - N/A   Clear
2:15 PM 62.6 °F - 44.6 °F 52% 29.92 in 10.0 mi NW 15.0 mph 20.7 mph N/A   Clear
2:35 PM 62.6 °F - 42.8 °F 48% 29.91 in 10.0 mi West 11.5 mph 17.3 mph N/A   Clear
2:55 PM 62.6 °F - 42.8 °F 48% 29.92 in 10.0 mi WNW 11.5 mph 18.4 mph N/A   Clear
3:15 PM 64.4 °F - 42.8 °F 45% 29.92 in 10.0 mi WNW 12.7 mph 20.7 mph N/A   Clear
3:55 PM 66.2 °F - 41.0 °F 40% 29.90 in 10.0 mi WNW 12.7 mph - N/A   Clear
4:15 PM 64.4 °F - 41.0 °F 42% 29.90 in 10.0 mi West 11.5 mph 19.6 mph N/A   Clear
4:35 PM 68.0 °F - 41.0 °F 37% 29.90 in 10.0 mi West 12.7 mph 17.3 mph N/A   Clear
4:55 PM 68.0 °F - 41.0 °F 37% 29.91 in 10.0 mi WNW 9.2 mph 19.6 mph N/A   Clear
5:15 PM 68.0 °F - 37.4 °F 33% 29.91 in 10.0 mi WNW 10.4 mph 17.3 mph N/A   Clear
5:35 PM 68.0 °F - 39.2 °F 35% 29.91 in 10.0 mi WNW 9.2 mph - N/A   Clear
5:55 PM 68.0 °F - 37.4 °F 33% 29.92 in 10.0 mi NW 12.7 mph 17.3 mph N/A   Clear
6:15 PM 68.0 °F - 35.6 °F 30% 29.92 in 10.0 mi NW 13.8 mph - N/A   Clear
6:35 PM 66.2 °F - 37.4 °F 35% 29.93 in 10.0 mi NW 6.9 mph - N/A   Clear
6:55 PM 64.4 °F - 35.6 °F 34% 29.94 in 10.0 mi NW 8.1 mph - N/A   Clear
7:15 PM 62.6 °F - 35.6 °F 37% 29.95 in 10.0 mi NW 10.4 mph - N/A   Clear
7:55 PM 59.0 °F - 37.4 °F 45% 29.97 in 10.0 mi WNW 5.8 mph - N/A   Clear
8:15 PM 59.0 °F - 37.4 °F 45% 29.97 in 10.0 mi WNW 6.9 mph - N/A   Clear
8:35 PM 55.4 °F - 37.4 °F 51% 29.98 in 10.0 mi WNW 6.9 mph - N/A   Clear
8:55 PM 57.2 °F - 35.6 °F 44% 29.99 in 10.0 mi NW 9.2 mph - N/A   Clear
9:15 PM 55.4 °F - 35.6 °F 47% 29.99 in 10.0 mi NW 10.4 mph - N/A   Clear
9:55 PM 55.4 °F - 33.8 °F 44% 30.02 in 10.0 mi WNW 9.2 mph - N/A   Clear
10:15 PM 53.6 °F - 33.8 °F 47% 30.02 in 10.0 mi WNW 6.9 mph - N/A   Clear
10:35 PM 53.6 °F - 35.6 °F 51% 30.03 in 10.0 mi NW 9.2 mph - N/A   Clear
10:55 PM 53.6 °F - 35.6 °F 51% 30.03 in 10.0 mi NW 9.2 mph - N/A   Clear
11:15 PM 53.6 °F - 35.6 °F 51% 30.04 in 10.0 mi NW 11.5 mph - N/A   Clear
11:35 PM 51.8 °F - 33.8 °F 50% 30.04 in 10.0 mi NW 11.5 mph - N/A   Clear
11:55 PM 51.8 °F - 33.8 °F 50% 30.05 in 10.0 mi NW 11.5 mph 17.3 mph N/A   Clear